Location: Unspecified
(0.0000°N, 0.0000°E)
Time: 05:33:49
(UTC-05:00)

Cosmos 1674 - Visible Passes

Search period start: 24 June 2017 00:00
Search period end: 04 July 2017 00:00
Orbit: 497 x 524 km, 82.5° (Epoch: 23 June)

Date Brightness Start Highest point End Pass type
(mag) Time Alt. Az. Time Alt. Az. Time Alt. Az.
28 Jun 5.6 15:18:42 11° N 15:18:42 11° N 15:18:54 10° N visible
29 Jun 4.7 15:01:02 22° N 15:01:02 22° N 15:02:25 10° N visible
30 Jun 3.3 14:43:12 43° NNE 14:43:12 43° NNE 14:45:50 10° N visible
01 Jul 2.7 14:25:08 49° ESE 14:25:31 51° E 14:29:10 10° NNE visible
02 Jul 3.2 14:06:44 19° SSE 14:08:56 36° E 14:12:24 10° NNE visible
03 Jul 3.7 13:49:10 10° SSE 13:52:22 26° E 13:55:32 10° NE visible
